Year,Month,Day,Hour,Minute,Value (Times are PST for temperature in C)
2015,08,19,00,00,18.40
2015,08,19,00,01,18.40
2015,08,19,00,02,18.40
2015,08,19,00,03,18.40
2015,08,19,00,04,18.40
2015,08,19,00,05,18.40
2015,08,19,00,06,18.40
2015,08,19,00,07,18.40
2015,08,19,00,08,18.40
2015,08,19,00,09,18.40
2015,08,19,00,10,18.40
2015,08,19,00,11,18.40
2015,08,19,00,12,18.60
2015,08,19,00,13,18.60
2015,08,19,00,14,18.60
2015,08,19,00,15,18.60
2015,08,19,00,16,18.60
2015,08,19,00,17,18.60
2015,08,19,00,18,18.60
2015,08,19,00,19,18.60
2015,08,19,00,20,18.60
2015,08,19,00,21,18.60
2015,08,19,00,22,18.60
2015,08,19,00,23,18.60
2015,08,19,00,24,18.60
2015,08,19,00,25,18.60
2015,08,19,00,26,18.60
2015,08,19,00,27,18.60
2015,08,19,00,28,18.60
2015,08,19,00,29,18.60
2015,08,19,00,30,18.60
2015,08,19,00,31,18.60
2015,08,19,00,32,18.60
2015,08,19,00,33,18.60
2015,08,19,00,34,18.60
2015,08,19,00,35,18.60
2015,08,19,00,36,18.60
2015,08,19,00,37,18.60
2015,08,19,00,38,18.60
2015,08,19,00,39,18.60
2015,08,19,00,40,18.60
2015,08,19,00,41,18.60
2015,08,19,00,42,18.60
2015,08,19,00,43,18.30
2015,08,19,00,44,18.30
2015,08,19,00,45,18.30
2015,08,19,00,46,18.30
2015,08,19,00,47,18.30
2015,08,19,00,48,18.30
2015,08,19,00,49,18.30
2015,08,19,00,50,18.30
2015,08,19,00,51,18.30
2015,08,19,00,52,18.30
2015,08,19,00,53,18.30
2015,08,19,00,54,18.30
2015,08,19,00,55,18.30
2015,08,19,00,56,18.30
2015,08,19,00,57,18.30
2015,08,19,00,58,18.30
2015,08,19,00,59,18.30
2015,08,19,01,00,18.30
2015,08,19,01,01,18.30
2015,08,19,01,02,18.20
2015,08,19,01,03,18.20
2015,08,19,01,04,18.20
2015,08,19,01,05,18.20
2015,08,19,01,06,18.20
2015,08,19,01,07,18.20
2015,08,19,01,08,18.20
2015,08,19,01,09,18.20
2015,08,19,01,10,18.20
2015,08,19,01,11,18.20
2015,08,19,01,12,18.20
2015,08,19,01,13,18.20
2015,08,19,01,14,18.20
2015,08,19,01,15,18.20
2015,08,19,01,16,18.20
2015,08,19,01,17,18.20
2015,08,19,01,18,18.20
2015,08,19,01,19,18.20
2015,08,19,01,20,18.20
2015,08,19,01,21,18.20
2015,08,19,01,22,18.20
2015,08,19,01,23,18.20
2015,08,19,01,24,18.20
2015,08,19,01,25,18.20
2015,08,19,01,26,18.20
2015,08,19,01,27,18.20
2015,08,19,01,28,18.20
2015,08,19,01,29,18.20
2015,08,19,01,30,18.20
2015,08,19,01,31,18.20
2015,08,19,01,32,18.20
2015,08,19,01,33,17.90
2015,08,19,01,34,17.90
2015,08,19,01,35,17.90
2015,08,19,01,36,17.90
2015,08,19,01,37,17.90
2015,08,19,01,38,17.90
2015,08,19,01,39,17.90
2015,08,19,01,40,17.90
2015,08,19,01,41,17.90
2015,08,19,01,42,17.90
2015,08,19,01,43,17.80
2015,08,19,01,44,17.80
2015,08,19,01,45,17.80
2015,08,19,01,46,17.80
2015,08,19,01,47,17.80
2015,08,19,01,48,17.80
2015,08,19,01,49,17.80
2015,08,19,01,50,17.80
2015,08,19,01,51,17.80
2015,08,19,01,52,18.00
2015,08,19,01,53,18.00
2015,08,19,01,54,18.00
2015,08,19,01,55,18.00
2015,08,19,01,56,18.00
2015,08,19,01,57,18.00
2015,08,19,01,58,18.00
2015,08,19,01,59,18.00
2015,08,19,02,00,18.00
2015,08,19,02,01,17.90
2015,08,19,02,02,17.90
2015,08,19,02,03,17.90
2015,08,19,02,04,17.90
2015,08,19,02,05,17.90
2015,08,19,02,06,17.90
2015,08,19,02,07,17.90
2015,08,19,02,08,17.90
2015,08,19,02,09,17.90
2015,08,19,02,10,17.90
2015,08,19,02,11,17.90
2015,08,19,02,12,17.90
2015,08,19,02,13,17.90
2015,08,19,02,14,17.90
2015,08,19,02,15,17.90
2015,08,19,02,16,17.90
2015,08,19,02,17,17.90
2015,08,19,02,18,17.90
2015,08,19,02,19,17.90
2015,08,19,02,20,17.90
2015,08,19,02,21,17.90
2015,08,19,02,22,17.90
2015,08,19,02,23,17.90
2015,08,19,02,24,17.90
2015,08,19,02,25,17.90
2015,08,19,02,26,17.90
2015,08,19,02,27,17.90
2015,08,19,02,28,17.90
2015,08,19,02,29,17.90
2015,08,19,02,30,17.90
2015,08,19,02,31,17.90
2015,08,19,02,32,17.90
2015,08,19,02,33,17.90
2015,08,19,02,34,17.90
2015,08,19,02,35,17.90
2015,08,19,02,36,17.90
2015,08,19,02,37,17.90
2015,08,19,02,38,17.90
2015,08,19,02,39,17.90
2015,08,19,02,40,17.90
2015,08,19,02,41,17.90
2015,08,19,02,42,18.00
2015,08,19,02,43,18.00
2015,08,19,02,44,18.00
2015,08,19,02,45,18.00
2015,08,19,02,46,18.00
2015,08,19,02,47,18.00
2015,08,19,02,48,18.00
2015,08,19,02,49,18.00
2015,08,19,02,50,18.00
2015,08,19,02,51,18.00
2015,08,19,02,52,18.10
2015,08,19,02,53,18.10
2015,08,19,02,54,18.10
2015,08,19,02,55,18.10
2015,08,19,02,56,18.10
2015,08,19,02,57,18.10
2015,08,19,02,58,18.10
2015,08,19,02,59,18.10
2015,08,19,03,00,18.10
2015,08,19,03,01,18.10
2015,08,19,03,02,18.10
2015,08,19,03,03,18.20
2015,08,19,03,04,18.20
2015,08,19,03,05,18.20
2015,08,19,03,06,18.20
2015,08,19,03,07,18.20
2015,08,19,03,08,18.20
2015,08,19,03,09,18.20
2015,08,19,03,10,18.20
2015,08,19,03,11,18.20
2015,08,19,03,12,18.60
2015,08,19,03,13,18.60
2015,08,19,03,14,18.60
2015,08,19,03,15,18.60
2015,08,19,03,16,18.60
2015,08,19,03,17,18.60
2015,08,19,03,18,18.60
2015,08,19,03,19,18.60
2015,08,19,03,20,18.60
2015,08,19,03,21,18.40
2015,08,19,03,22,18.40
2015,08,19,03,23,18.40
2015,08,19,03,24,18.40
2015,08,19,03,25,18.40
2015,08,19,03,26,18.40
2015,08,19,03,27,18.40
2015,08,19,03,28,18.40
2015,08,19,03,29,18.40
2015,08,19,03,30,18.40
2015,08,19,03,31,18.40
2015,08,19,03,32,18.10
2015,08,19,03,33,18.10
2015,08,19,03,34,18.10
2015,08,19,03,35,18.10
2015,08,19,03,36,18.10
2015,08,19,03,37,18.10
2015,08,19,03,38,18.10
2015,08,19,03,39,18.10
2015,08,19,03,40,18.10
2015,08,19,03,41,18.10
2015,08,19,03,42,17.90
2015,08,19,03,43,17.90
2015,08,19,03,44,17.90
2015,08,19,03,45,17.90
2015,08,19,03,46,17.90
2015,08,19,03,47,17.90
2015,08,19,03,48,17.90
2015,08,19,03,49,17.90
2015,08,19,03,50,17.90
2015,08,19,03,51,18.00
2015,08,19,03,52,18.00
2015,08,19,03,53,18.00
2015,08,19,03,54,18.00
2015,08,19,03,55,18.00
2015,08,19,03,56,18.00
2015,08,19,03,57,18.00
2015,08,19,03,58,18.00
2015,08,19,03,59,18.00
2015,08,19,04,00,18.00
2015,08,19,04,01,18.00
2015,08,19,04,02,18.20
2015,08,19,04,03,18.20
2015,08,19,04,04,18.20
2015,08,19,04,05,18.20
2015,08,19,04,06,18.20
2015,08,19,04,07,18.20
2015,08,19,04,08,18.20
2015,08,19,04,09,18.20
2015,08,19,04,10,18.20
2015,08,19,04,11,18.20
2015,08,19,04,12,18.20
2015,08,19,04,13,18.20
2015,08,19,04,14,18.20
2015,08,19,04,15,18.20
2015,08,19,04,16,18.20
2015,08,19,04,17,18.20
2015,08,19,04,18,18.20
2015,08,19,04,19,18.20
2015,08,19,04,20,18.20
2015,08,19,04,21,18.20
2015,08,19,04,22,18.20
2015,08,19,04,23,17.80
2015,08,19,04,24,17.80
2015,08,19,04,25,17.80
2015,08,19,04,26,17.80
2015,08,19,04,27,17.80
2015,08,19,04,28,17.80
2015,08,19,04,29,17.80
2015,08,19,04,30,17.80
2015,08,19,04,31,17.80
2015,08,19,04,32,17.80
2015,08,19,04,33,17.80
2015,08,19,04,34,17.80
2015,08,19,04,35,17.80
2015,08,19,04,36,17.80
2015,08,19,04,37,17.80
2015,08,19,04,38,17.80
2015,08,19,04,39,17.80
2015,08,19,04,40,17.80
2015,08,19,04,41,17.80
2015,08,19,04,42,17.80
2015,08,19,04,43,17.70
2015,08,19,04,44,17.70
2015,08,19,04,45,17.70
2015,08,19,04,46,17.70
2015,08,19,04,47,17.70
2015,08,19,04,48,17.70
2015,08,19,04,49,17.70
2015,08,19,04,50,17.70
2015,08,19,04,51,17.70
2015,08,19,04,52,17.80
2015,08,19,04,53,17.80
2015,08,19,04,54,17.80
2015,08,19,04,55,17.80
2015,08,19,04,56,17.80
2015,08,19,04,57,17.80
2015,08,19,04,58,17.80
2015,08,19,04,59,17.80
2015,08,19,05,00,17.80
2015,08,19,05,01,17.80
2015,08,19,05,02,17.80
2015,08,19,05,03,17.80
2015,08,19,05,04,17.70
2015,08,19,05,05,17.70
2015,08,19,05,06,17.70
2015,08,19,05,07,17.70
2015,08,19,05,08,17.70
2015,08,19,05,09,17.70
2015,08,19,05,10,17.70
2015,08,19,05,11,17.70
2015,08,19,05,12,17.70
2015,08,19,05,13,17.80
2015,08,19,05,14,17.80
2015,08,19,05,15,17.80
2015,08,19,05,16,17.80
2015,08,19,05,17,17.80
2015,08,19,05,18,17.80
2015,08,19,05,19,17.80
2015,08,19,05,20,17.80
2015,08,19,05,21,17.80
2015,08,19,05,22,17.80
2015,08,19,05,23,17.80
2015,08,19,05,24,17.70
2015,08,19,05,25,17.70
2015,08,19,05,26,17.70
2015,08,19,05,27,17.70
2015,08,19,05,28,17.70
2015,08,19,05,29,17.70
2015,08,19,05,30,17.70
2015,08,19,05,31,17.70
2015,08,19,05,32,17.50
2015,08,19,05,33,17.50
2015,08,19,05,34,17.50
2015,08,19,05,35,17.50
2015,08,19,05,36,17.50
2015,08,19,05,37,17.50
2015,08,19,05,38,17.50
2015,08,19,05,39,17.50
2015,08,19,05,40,17.50
2015,08,19,05,41,17.50
2015,08,19,05,42,17.30
2015,08,19,05,43,17.30
2015,08,19,05,44,17.30
2015,08,19,05,45,17.30
2015,08,19,05,46,17.30
2015,08,19,05,47,17.30
2015,08,19,05,48,17.30
2015,08,19,05,49,17.30
2015,08,19,05,50,17.30
2015,08,19,05,51,17.30
2015,08,19,05,52,17.30
2015,08,19,05,53,17.30
2015,08,19,05,54,17.40
2015,08,19,05,55,17.40
2015,08,19,05,56,17.40
2015,08,19,05,57,17.40
2015,08,19,05,58,17.40
2015,08,19,05,59,17.40
2015,08,19,06,00,17.40
2015,08,19,06,01,17.40
2015,08,19,06,02,17.40
2015,08,19,06,03,17.40
2015,08,19,06,04,17.70
2015,08,19,06,05,17.70
2015,08,19,06,06,17.70
2015,08,19,06,07,17.70
2015,08,19,06,08,17.70
2015,08,19,06,09,17.70
2015,08,19,06,10,17.70
2015,08,19,06,11,17.70
2015,08,19,06,12,17.70
2015,08,19,06,13,17.70
2015,08,19,06,14,17.70
2015,08,19,06,15,17.70
2015,08,19,06,16,17.70
2015,08,19,06,17,17.70
2015,08,19,06,18,17.70
2015,08,19,06,19,17.70
2015,08,19,06,20,17.70
2015,08,19,06,21,17.70
2015,08,19,06,22,17.10
2015,08,19,06,23,17.10
2015,08,19,06,24,17.10
2015,08,19,06,25,17.10
2015,08,19,06,26,17.10
2015,08,19,06,27,17.10
2015,08,19,06,28,17.10
2015,08,19,06,29,17.10
2015,08,19,06,30,17.10
2015,08,19,06,31,17.10
2015,08,19,06,32,17.10
2015,08,19,06,33,17.10
2015,08,19,06,34,17.10
2015,08,19,06,35,17.10
2015,08,19,06,36,17.10
2015,08,19,06,37,17.10
2015,08,19,06,38,17.10
2015,08,19,06,39,17.10
2015,08,19,06,40,17.10
2015,08,19,06,41,17.10
2015,08,19,06,42,17.10
2015,08,19,06,43,17.10
2015,08,19,06,44,17.10
2015,08,19,06,45,17.10
2015,08,19,06,46,17.10
2015,08,19,06,47,17.10
2015,08,19,06,48,17.10
2015,08,19,06,49,17.10
2015,08,19,06,50,17.10
2015,08,19,06,51,17.10
2015,08,19,06,52,16.90
2015,08,19,06,53,16.90
2015,08,19,06,54,16.90
2015,08,19,06,55,16.90
2015,08,19,06,56,16.90
2015,08,19,06,57,16.90
2015,08,19,06,58,16.90
2015,08,19,06,59,16.90
2015,08,19,07,00,16.90
2015,08,19,07,01,17.00
2015,08,19,07,02,17.00
2015,08,19,07,03,17.00
2015,08,19,07,04,17.00
2015,08,19,07,05,17.00
2015,08,19,07,06,17.00
2015,08,19,07,07,17.00
2015,08,19,07,08,17.00
2015,08,19,07,09,17.00
2015,08,19,07,10,17.00
2015,08,19,07,11,17.00
2015,08,19,07,12,17.00
2015,08,19,07,13,17.00
2015,08,19,07,14,16.90
2015,08,19,07,15,16.90
2015,08,19,07,16,16.90
2015,08,19,07,17,16.90
2015,08,19,07,18,16.90
2015,08,19,07,19,16.90
2015,08,19,07,20,16.90
2015,08,19,07,21,16.90
2015,08,19,07,22,16.90
2015,08,19,07,23,16.90
2015,08,19,07,24,16.90
2015,08,19,07,25,16.90
2015,08,19,07,26,16.90
2015,08,19,07,27,16.90
2015,08,19,07,28,16.90
2015,08,19,07,29,16.90
2015,08,19,07,30,16.90
2015,08,19,07,31,16.90
2015,08,19,07,32,16.80
2015,08,19,07,33,16.80
2015,08,19,07,34,16.80
2015,08,19,07,35,16.80
2015,08,19,07,36,16.80
2015,08,19,07,37,16.80
2015,08,19,07,38,16.80
2015,08,19,07,39,16.80
2015,08,19,07,40,16.80
2015,08,19,07,41,16.80
2015,08,19,07,42,16.80
2015,08,19,07,43,16.80
2015,08,19,07,44,16.80
2015,08,19,07,45,16.80
2015,08,19,07,46,16.80
2015,08,19,07,47,16.80
2015,08,19,07,48,16.80
2015,08,19,07,49,16.80
2015,08,19,07,50,16.80
2015,08,19,07,51,16.80
2015,08,19,07,52,16.90
2015,08,19,07,53,16.90
2015,08,19,07,54,16.90
2015,08,19,07,55,16.90
2015,08,19,07,56,16.90
2015,08,19,07,57,16.90
2015,08,19,07,58,16.90
2015,08,19,07,59,16.90
2015,08,19,08,00,16.90
2015,08,19,08,01,16.90
2015,08,19,08,02,16.90
2015,08,19,08,03,17.40
2015,08,19,08,04,17.40
2015,08,19,08,05,17.40
2015,08,19,08,06,17.40
2015,08,19,08,07,17.40
2015,08,19,08,08,17.40
2015,08,19,08,09,17.40
2015,08,19,08,10,17.40
2015,08,19,08,11,17.40
2015,08,19,08,12,17.40
2015,08,19,08,13,17.40
2015,08,19,08,14,17.40
2015,08,19,08,15,17.40
2015,08,19,08,16,17.40
2015,08,19,08,17,17.40
2015,08,19,08,18,17.40
2015,08,19,08,19,17.40
2015,08,19,08,20,17.40
2015,08,19,08,21,17.80
2015,08,19,08,22,17.80
2015,08,19,08,23,17.80
2015,08,19,08,24,17.80
2015,08,19,08,25,17.80
2015,08,19,08,26,17.80
2015,08,19,08,27,17.80
2015,08,19,08,28,17.80
2015,08,19,08,29,17.80
2015,08,19,08,30,17.80
2015,08,19,08,31,17.80
2015,08,19,08,32,17.80
2015,08,19,08,33,17.90
2015,08,19,08,34,17.90
2015,08,19,08,35,17.90
2015,08,19,08,36,17.90
2015,08,19,08,37,17.90
2015,08,19,08,38,17.90
2015,08,19,08,39,17.90
2015,08,19,08,40,17.90
2015,08,19,08,41,17.90
2015,08,19,08,42,18.10
2015,08,19,08,43,18.10
2015,08,19,08,44,18.10
2015,08,19,08,45,18.10
2015,08,19,08,46,18.10
2015,08,19,08,47,18.10
2015,08,19,08,48,18.10
2015,08,19,08,49,18.10
2015,08,19,08,50,18.10
2015,08,19,08,51,18.10
2015,08,19,08,52,18.10
2015,08,19,08,53,18.10
2015,08,19,08,54,18.20
2015,08,19,08,55,18.20
2015,08,19,08,56,18.20
2015,08,19,08,57,18.20
2015,08,19,08,58,18.20
2015,08,19,08,59,18.20
2015,08,19,09,00,18.20
2015,08,19,09,01,18.20
2015,08,19,09,02,18.20
2015,08,19,09,03,18.20
2015,08,19,09,04,18.20
2015,08,19,09,05,18.20
2015,08,19,09,06,18.20
2015,08,19,09,07,18.20
2015,08,19,09,08,18.20
2015,08,19,09,09,18.20
2015,08,19,09,10,18.20
2015,08,19,09,11,18.20
2015,08,19,09,12,18.20
2015,08,19,09,13,18.30
2015,08,19,09,14,18.30
2015,08,19,09,15,18.30
2015,08,19,09,16,18.30
2015,08,19,09,17,18.30
2015,08,19,09,18,18.30
2015,08,19,09,19,18.30
2015,08,19,09,20,18.30
2015,08,19,09,21,18.30
2015,08,19,09,22,18.40
2015,08,19,09,23,18.40
2015,08,19,09,24,18.40
2015,08,19,09,25,18.40
2015,08,19,09,26,18.40
2015,08,19,09,27,18.40
2015,08,19,09,28,18.40
2015,08,19,09,29,18.40
2015,08,19,09,30,18.40
2015,08,19,09,31,18.40
2015,08,19,09,32,18.50
2015,08,19,09,33,18.50
2015,08,19,09,34,18.50
2015,08,19,09,35,18.50
2015,08,19,09,36,18.50
2015,08,19,09,37,18.50
2015,08,19,09,38,18.50
2015,08,19,09,39,18.50
2015,08,19,09,40,18.50
2015,08,19,09,41,18.50
2015,08,19,09,42,18.50
2015,08,19,09,43,18.90
2015,08,19,09,44,18.90
2015,08,19,09,45,18.90
2015,08,19,09,46,18.90
2015,08,19,09,47,18.90
2015,08,19,09,48,18.90
2015,08,19,09,49,18.90
2015,08,19,09,50,18.90
2015,08,19,09,51,18.90
2015,08,19,09,52,18.90
2015,08,19,09,53,18.90
2015,08,19,09,54,18.90
2015,08,19,09,55,18.90
2015,08,19,09,56,18.90
2015,08,19,09,57,18.90
2015,08,19,09,58,18.90
2015,08,19,09,59,18.90
2015,08,19,10,00,18.90
2015,08,19,10,01,18.90
2015,08,19,10,02,19.20
2015,08,19,10,03,19.20
2015,08,19,10,04,19.20
2015,08,19,10,05,19.20
2015,08,19,10,06,19.20
2015,08,19,10,07,19.20
2015,08,19,10,08,19.20
2015,08,19,10,09,19.20
2015,08,19,10,10,19.20
2015,08,19,10,11,19.20
2015,08,19,10,12,19.20
2015,08,19,10,13,19.20
2015,08,19,10,14,19.20
2015,08,19,10,15,19.20
2015,08,19,10,16,19.20
2015,08,19,10,17,19.20
2015,08,19,10,18,19.20
2015,08,19,10,19,19.20
2015,08,19,10,20,19.20
2015,08,19,10,21,19.20
2015,08,19,10,22,19.40
2015,08,19,10,23,19.40
2015,08,19,10,24,19.40
2015,08,19,10,25,19.40
2015,08,19,10,26,19.40
2015,08,19,10,27,19.40
2015,08,19,10,28,19.40
2015,08,19,10,29,19.40
2015,08,19,10,30,19.40
2015,08,19,10,31,19.40
2015,08,19,10,32,19.40
2015,08,19,10,33,19.40
2015,08,19,10,34,19.50
2015,08,19,10,35,19.50
2015,08,19,10,36,19.50
2015,08,19,10,37,19.50
2015,08,19,10,38,19.50
2015,08,19,10,39,19.50
2015,08,19,10,40,19.50
2015,08,19,10,41,19.50
2015,08,19,10,42,19.50
2015,08,19,10,43,19.50
2015,08,19,10,44,19.60
2015,08,19,10,45,19.60
2015,08,19,10,46,19.60
2015,08,19,10,47,19.60
2015,08,19,10,48,19.60
2015,08,19,10,49,19.60
2015,08,19,10,50,19.60
2015,08,19,10,51,19.60
2015,08,19,10,52,20.00
2015,08,19,10,53,20.00
2015,08,19,10,54,20.00
2015,08,19,10,55,20.00
2015,08,19,10,56,20.00
2015,08,19,10,57,20.00
2015,08,19,10,58,20.00
2015,08,19,10,59,20.00
2015,08,19,11,00,20.00
2015,08,19,11,01,20.00
2015,08,19,11,02,20.00
2015,08,19,11,03,20.20
2015,08,19,11,04,20.20
2015,08,19,11,05,20.20
2015,08,19,11,06,20.20
2015,08,19,11,07,20.20
2015,08,19,11,08,20.20
2015,08,19,11,09,20.20
2015,08,19,11,10,20.20
2015,08,19,11,11,20.20
2015,08,19,11,12,20.60
2015,08,19,11,13,20.60
2015,08,19,11,14,20.60
2015,08,19,11,15,20.60
2015,08,19,11,16,20.60
2015,08,19,11,17,20.60
2015,08,19,11,18,20.60
2015,08,19,11,19,20.60
2015,08,19,11,20,20.60
2015,08,19,11,21,20.70
2015,08,19,11,22,20.70
2015,08,19,11,23,20.70
2015,08,19,11,24,20.70
2015,08,19,11,25,20.70
2015,08,19,11,26,20.70
2015,08,19,11,27,20.70
2015,08,19,11,28,20.70
2015,08,19,11,29,20.70
2015,08,19,11,30,20.70
2015,08,19,11,31,21.30
2015,08,19,11,32,21.30
2015,08,19,11,33,21.30
2015,08,19,11,34,21.30
2015,08,19,11,35,21.30
2015,08,19,11,36,21.30
2015,08,19,11,37,21.30
2015,08,19,11,38,21.30
2015,08,19,11,39,21.30
2015,08,19,11,40,21.30
2015,08,19,11,41,21.30
2015,08,19,11,42,21.30
2015,08,19,11,43,21.30
2015,08,19,11,44,20.90
2015,08,19,11,45,20.90
2015,08,19,11,46,20.90
2015,08,19,11,47,20.90
2015,08,19,11,48,20.90
2015,08,19,11,49,20.90
2015,08,19,11,50,20.90
2015,08,19,11,51,20.90
2015,08,19,11,52,20.90
2015,08,19,11,53,21.10
2015,08,19,11,54,21.10
2015,08,19,11,55,21.10
2015,08,19,11,56,21.10
2015,08,19,11,57,21.10
2015,08,19,11,58,21.10
2015,08,19,11,59,21.10
2015,08,19,12,00,21.10
2015,08,19,12,01,21.10
2015,08,19,12,02,21.10
2015,08,19,12,03,21.10
2015,08,19,12,04,21.60
2015,08,19,12,05,21.60
2015,08,19,12,06,21.60
2015,08,19,12,07,21.60
2015,08,19,12,08,21.60
2015,08,19,12,09,21.60
2015,08,19,12,10,21.60
2015,08,19,12,11,21.60
2015,08,19,12,12,21.60
2015,08,19,12,13,21.30
2015,08,19,12,14,21.30
2015,08,19,12,15,21.30
2015,08,19,12,16,21.30
2015,08,19,12,17,21.30
2015,08,19,12,18,21.30
2015,08,19,12,19,21.30
2015,08,19,12,20,21.30
2015,08,19,12,21,21.30
2015,08,19,12,22,21.30
2015,08,19,12,23,21.30
2015,08,19,12,24,21.30
2015,08,19,12,25,21.30
2015,08,19,12,26,21.30
2015,08,19,12,27,21.30
2015,08,19,12,28,21.30
2015,08,19,12,29,21.30
2015,08,19,12,30,21.30
2015,08,19,12,31,21.30
2015,08,19,12,32,21.30
2015,08,19,12,33,20.90
2015,08,19,12,34,20.90
2015,08,19,12,35,20.90
2015,08,19,12,36,20.90
2015,08,19,12,37,20.90
2015,08,19,12,38,20.90
2015,08,19,12,39,20.90
2015,08,19,12,40,20.90
2015,08,19,12,41,20.90
2015,08,19,12,42,21.20
2015,08,19,12,43,21.20
2015,08,19,12,44,21.20
2015,08,19,12,45,21.20
2015,08,19,12,46,21.20
2015,08,19,12,47,21.20
2015,08,19,12,48,21.20
2015,08,19,12,49,21.20
2015,08,19,12,50,21.20
2015,08,19,12,51,21.20
2015,08,19,12,52,21.20
2015,08,19,12,53,21.20
2015,08,19,12,54,21.20
2015,08,19,12,55,21.20
2015,08,19,12,56,21.20
2015,08,19,12,57,21.20
2015,08,19,12,58,21.20
2015,08,19,12,59,21.20
2015,08,19,13,00,21.20
2015,08,19,13,01,21.20
2015,08,19,13,02,21.20
2015,08,19,13,03,20.60
2015,08,19,13,04,20.60
2015,08,19,13,05,20.60
2015,08,19,13,06,20.60
2015,08,19,13,07,20.60
2015,08,19,13,08,20.60
2015,08,19,13,09,20.60
2015,08,19,13,10,20.60
2015,08,19,13,11,20.60
2015,08,19,13,12,20.60
2015,08,19,13,13,20.90
2015,08,19,13,14,20.90
2015,08,19,13,15,20.90
2015,08,19,13,16,20.90
2015,08,19,13,17,20.90
2015,08,19,13,18,20.90
2015,08,19,13,19,20.90
2015,08,19,13,20,20.90
2015,08,19,13,21,20.90
2015,08,19,13,22,20.90
2015,08,19,13,23,21.10
2015,08,19,13,24,21.10
2015,08,19,13,25,21.10
2015,08,19,13,26,21.10
2015,08,19,13,27,21.10
2015,08,19,13,28,21.10
2015,08,19,13,29,21.10
2015,08,19,13,30,21.10
2015,08,19,13,31,21.60
2015,08,19,13,32,21.60
2015,08,19,13,33,21.60
2015,08,19,13,34,21.60
2015,08,19,13,35,21.60
2015,08,19,13,36,21.60
2015,08,19,13,37,21.60
2015,08,19,13,38,21.60
2015,08,19,13,39,21.60
2015,08,19,13,40,21.60
2015,08,19,13,41,21.60
2015,08,19,13,42,20.70
2015,08,19,13,43,20.70
2015,08,19,13,44,20.70
2015,08,19,13,45,20.70
2015,08,19,13,46,20.70
2015,08,19,13,47,20.70
2015,08,19,13,48,20.70
2015,08,19,13,49,20.70
2015,08,19,13,50,20.70
2015,08,19,13,51,20.70
2015,08,19,13,52,20.70
2015,08,19,13,53,21.40
2015,08,19,13,54,21.40
2015,08,19,13,55,21.40
2015,08,19,13,56,21.40
2015,08,19,13,57,21.40
2015,08,19,13,58,21.40
2015,08,19,13,59,21.40
2015,08,19,14,00,21.40
2015,08,19,14,01,21.40
2015,08,19,14,02,21.10
2015,08,19,14,03,21.10
2015,08,19,14,04,21.10
2015,08,19,14,05,21.10
2015,08,19,14,06,21.10
2015,08,19,14,07,21.10
2015,08,19,14,08,21.10
2015,08,19,14,09,21.10
2015,08,19,14,10,21.10
2015,08,19,14,11,21.10
2015,08,19,14,12,21.10
2015,08,19,14,13,21.10
2015,08,19,14,14,21.10
2015,08,19,14,15,21.10
2015,08,19,14,16,21.10
2015,08,19,14,17,21.10
2015,08,19,14,18,21.10
2015,08,19,14,19,21.10
2015,08,19,14,20,21.10
2015,08,19,14,21,21.70
2015,08,19,14,22,21.70
2015,08,19,14,23,21.70
2015,08,19,14,24,21.70
2015,08,19,14,25,21.70
2015,08,19,14,26,21.70
2015,08,19,14,27,21.70
2015,08,19,14,28,21.70
2015,08,19,14,29,21.70
2015,08,19,14,30,21.70
2015,08,19,14,31,21.70
2015,08,19,14,32,21.60
2015,08,19,14,33,21.60
2015,08,19,14,34,21.60
2015,08,19,14,35,21.60
2015,08,19,14,36,21.60
2015,08,19,14,37,21.60
2015,08,19,14,38,21.60
2015,08,19,14,39,21.60
2015,08,19,14,40,21.60
2015,08,19,14,41,21.60
2015,08,19,14,42,21.60
2015,08,19,14,43,21.50
2015,08,19,14,44,21.50
2015,08,19,14,45,21.50
2015,08,19,14,46,21.50
2015,08,19,14,47,21.50
2015,08,19,14,48,21.50
2015,08,19,14,49,21.50
2015,08,19,14,50,21.50
2015,08,19,14,51,21.50
2015,08,19,14,52,21.50
2015,08,19,14,53,21.80
2015,08,19,14,54,21.80
2015,08,19,14,55,21.80
2015,08,19,14,56,21.80
2015,08,19,14,57,21.80
2015,08,19,14,58,21.80
2015,08,19,14,59,21.80
2015,08,19,15,00,21.80
2015,08,19,15,01,21.80
2015,08,19,15,12,21.90
2015,08,19,15,13,21.90
2015,08,19,15,14,21.90
2015,08,19,15,15,21.90
2015,08,19,15,16,21.90
2015,08,19,15,17,21.90
2015,08,19,15,18,21.90
2015,08,19,15,19,21.90
2015,08,19,15,20,21.90
2015,08,19,15,21,21.90
2015,08,19,15,22,21.90
2015,08,19,15,23,21.60
2015,08,19,15,24,21.60
2015,08,19,15,25,21.60
2015,08,19,15,26,21.60
2015,08,19,15,27,21.60
2015,08,19,15,28,21.60
2015,08,19,15,29,21.60
2015,08,19,15,30,21.60
2015,08,19,15,31,21.60
2015,08,19,15,32,21.60
2015,08,19,15,33,22.00
2015,08,19,15,34,22.00
2015,08,19,15,35,22.00
2015,08,19,15,36,22.00
2015,08,19,15,37,22.00
2015,08,19,15,38,22.00
2015,08,19,15,39,22.00
2015,08,19,15,40,22.00
2015,08,19,15,41,22.00
2015,08,19,15,42,22.00
2015,08,19,15,43,22.00
2015,08,19,15,44,21.80
2015,08,19,15,45,21.80
2015,08,19,15,46,21.80
2015,08,19,15,47,21.80
2015,08,19,15,48,21.80
2015,08,19,15,49,21.80
2015,08,19,15,50,21.80
2015,08,19,15,51,21.80
2015,08,19,15,52,21.80
2015,08,19,15,53,21.40
2015,08,19,15,54,21.40
2015,08,19,15,55,21.40
2015,08,19,15,56,21.40
2015,08,19,15,57,21.40
2015,08,19,15,58,21.40
2015,08,19,15,59,21.40
2015,08,19,16,00,21.40
2015,08,19,16,01,21.40
2015,08,19,16,02,21.00
2015,08,19,16,03,21.00
2015,08,19,16,04,21.00
2015,08,19,16,05,21.00
2015,08,19,16,06,21.00
2015,08,19,16,07,21.00
2015,08,19,16,08,21.00
2015,08,19,16,09,21.00
2015,08,19,16,10,21.00
2015,08,19,16,11,21.00
2015,08,19,16,12,21.00
2015,08,19,16,13,21.00
2015,08,19,16,14,21.00
2015,08,19,16,15,21.00
2015,08,19,16,16,21.00
2015,08,19,16,17,21.00
2015,08,19,16,18,21.00
2015,08,19,16,19,21.00
2015,08,19,16,20,21.00
2015,08,19,16,21,21.00
2015,08,19,16,22,21.00
2015,08,19,16,23,20.80
2015,08,19,16,24,20.80
2015,08,19,16,25,20.80
2015,08,19,16,26,20.80
2015,08,19,16,27,20.80
2015,08,19,16,28,20.80
2015,08,19,16,29,20.80
2015,08,19,16,30,20.80
2015,08,19,16,31,20.80
2015,08,19,16,32,20.80
2015,08,19,16,33,20.90
2015,08,19,16,34,20.90
2015,08,19,16,35,20.90
2015,08,19,16,36,20.90
2015,08,19,16,37,20.90
2015,08,19,16,38,20.90
2015,08,19,16,39,20.90
2015,08,19,16,40,20.90
2015,08,19,16,41,20.90
2015,08,19,16,42,20.20
2015,08,19,16,43,20.20
2015,08,19,16,44,20.20
2015,08,19,16,45,20.20
2015,08,19,16,46,20.20
2015,08,19,16,47,20.20
2015,08,19,16,48,20.20
2015,08,19,16,49,20.20
2015,08,19,16,50,20.20
2015,08,19,16,51,20.20
2015,08,19,16,52,20.10
2015,08,19,16,53,20.10
2015,08,19,16,54,20.10
2015,08,19,16,55,20.10
2015,08,19,16,56,20.10
2015,08,19,16,57,20.10
2015,08,19,16,58,20.10
2015,08,19,16,59,20.10
2015,08,19,17,00,20.10
2015,08,19,17,01,20.10
2015,08,19,17,02,20.10
2015,08,19,17,03,20.40
2015,08,19,17,04,20.40
2015,08,19,17,05,20.40
2015,08,19,17,06,20.40
2015,08,19,17,07,20.40
2015,08,19,17,08,20.40
2015,08,19,17,09,20.40
2015,08,19,17,10,20.40
2015,08,19,17,11,20.40
2015,08,19,17,12,20.40
2015,08,19,17,13,20.20
2015,08,19,17,14,20.20
2015,08,19,17,15,20.20
2015,08,19,17,16,20.20
2015,08,19,17,17,20.20
2015,08,19,17,18,20.20
2015,08,19,17,19,20.20
2015,08,19,17,20,20.20
2015,08,19,17,21,20.20
2015,08,19,17,22,19.60
2015,08,19,17,23,19.60
2015,08,19,17,24,19.60
2015,08,19,17,25,19.60
2015,08,19,17,26,19.60
2015,08,19,17,27,19.60
2015,08,19,17,28,19.60
2015,08,19,17,29,19.60